Location: Cuiry
(49.3858°N, 3.7708°E)
Time: 21:18:37
(UTC+00:00)

MOS 1 Rocket - Pass Details

Date: 12 January 2026
Orbit: 608 x 815 km, 97.4° (Epoch: 16 February)

Event Time Altitude Azimuth Distance (km) Brightness Sun altitude
Rises 16:58:53 0° 158° (SSE) 3,322 6.8 -7.8°
Reaches altitude 10° 17:01:15 10° 156° (SSE) 2,385 6.1 -8.2°
Maximum altitude 17:06:32 71° 74° (ENE) 837 3.5 -9.0°
Drops below altitude 10° 17:11:39 10° 351° (N) 2,312 5.9 -9.8°
Sets 17:13:55 0° 349° (N) 3,213 6.6 -10.1°
